Whiteman AFB, MO

3:29 PM CST on November 23, 2017 (GMT -0600)
Whiteman Air Force Base

Weather History for KSZL - May, 2013

Change the Weather History Date:

Wednesday, May 29, 2013

  Actual Average Record
Temperature  
Mean Temperature 74 °F -  
Max Temperature 82 °F 75 °F 89 °F (1998)
Min Temperature 66 °F 56 °F 48 °F (1997)
Cooling Degree Days 9    
Growing Degree Days 24 (Base 50)    
Moisture  
Dew Point 68 °F    
Average Humidity 81    
Maximum Humidity 100    
Minimum Humidity 64    
Precipitation  
Precipitation 0.00 in - - ()
Sea Level Pressure  
Sea Level Pressure 29.80 in    
Wind  
Wind Speed 11 mph (South)    
Max Wind Speed 24 mph    
Max Gust Speed 30 mph    
Visibility 10 miles    
Events Rain    
Averages and records for this station are not official NWS values.
T = Trace of Precipitation, MM = Missing Value Source: NWS Daily Summary

Daily Weather History Graph

Daily Weather History Graph

Search for Another Location

Airport or City:

Trip Planner

Search our weather history database for the weather conditions in past years. The results will help you decide how hot, cold, wet, or windy it might be!

Date:

Astronomy

May. 29, 2013 Rise Set
Actual Time 5:52 AM CDT 8:31 PM CDT
Civil Twilight 5:21 AM CDT 9:02 PM CDT
Nautical Twilight 4:42 AM CDT 9:41 PM CDT
Astronomical Twilight 3:59 AM CDT 10:25 PM CDT
Moon No Moon Rise 10:50 AM CDT (5/29)
Length of Visible Light 15h 41m
Length of Day
14h 38m
Waning Gibbous, 73% of the Moon is Illuminated
May 29
Waning Gibbous
May 31
Last Quarter
Jun 8
New
Jun 16
First Quarter
Jun 23
Full

Hourly Weather History & Observations

Time (CDT) Temp. Heat Index Dew Point Humidity Pressure Visibility Wind Dir Wind Speed Gust Speed Precip Events Conditions
12:47 AM 71.6 °F - 69.8 °F 94% 29.86 in 10.0 mi South 3.5 mph - N/A Rain Light Rain
12:57 AM 69.8 °F - 69.8 °F 100% 29.87 in 10.0 mi NNW 3.5 mph - N/A   Overcast
12:58 AM 70.9 °F - 70.5 °F 99% 29.86 in 10.0 mi North 3.5 mph - 0.00 in   Overcast
1:58 AM 68.9 °F - 68.0 °F 97% 29.88 in 10.0 mi NE 8.1 mph - 0.00 in   Overcast
2:58 AM 66.7 °F - 64.0 °F 91% 29.86 in 10.0 mi East 6.9 mph - N/A   Mostly Cloudy
3:58 AM 66.4 °F - 65.8 °F 98% 29.84 in 10.0 mi SE 6.9 mph - N/A   Scattered Clouds
4:58 AM 70.9 °F - 67.8 °F 90% 29.83 in 10.0 mi SSE 10.4 mph - N/A   Clear
5:58 AM 71.1 °F - 67.5 °F 88% 29.82 in 10.0 mi SSE 10.4 mph 18.4 mph N/A   Clear
6:58 AM 70.2 °F - 68.2 °F 93% 29.84 in 10.0 mi South 10.4 mph - N/A   Scattered Clouds
7:58 AM 70.5 °F - 69.1 °F 95% 29.83 in 10.0 mi South 11.5 mph - N/A   Clear
8:58 AM 72.9 °F - 69.8 °F 90% 29.82 in 10.0 mi South 15.0 mph 20.7 mph N/A   Partly Cloudy
9:58 AM 76.8 °F - 70.2 °F 80% 29.81 in 10.0 mi SSW 17.3 mph 25.3 mph N/A   Scattered Clouds
10:58 AM 78.4 °F - 70.7 °F 77% 29.82 in 10.0 mi South 20.7 mph 27.6 mph N/A   Scattered Clouds
11:58 AM 80.2 °F 83.5 °F 70.0 °F 71% 29.81 in 10.0 mi South 18.4 mph 25.3 mph N/A   Clear
12:58 PM 81.3 °F 84.6 °F 69.6 °F 67% 29.80 in 10.0 mi South 20.7 mph 29.9 mph N/A   Partly Cloudy
1:58 PM 81.7 °F 85.2 °F 69.8 °F 67% 29.79 in 10.0 mi South 21.9 mph 28.8 mph N/A   Mostly Cloudy
2:58 PM 82.2 °F 85.5 °F 69.1 °F 64% 29.79 in 10.0 mi South 17.3 mph 24.2 mph N/A   Mostly Cloudy
3:58 PM 82.0 °F 85.5 °F 69.4 °F 65% 29.78 in 10.0 mi South 18.4 mph 26.5 mph N/A   Partly Cloudy
4:58 PM 81.3 °F 84.3 °F 68.7 °F 65% 29.75 in 10.0 mi South 18.4 mph 26.5 mph N/A   Mostly Cloudy
5:58 PM 80.8 °F 83.8 °F 68.7 °F 67% 29.73 in 10.0 mi South 17.3 mph 25.3 mph N/A   Clear
6:58 PM 78.6 °F - 67.6 °F 69% 29.71 in 10.0 mi South 17.3 mph 23.0 mph N/A   Clear
7:58 PM 77.4 °F - 67.6 °F 72% 29.71 in 10.0 mi South 12.7 mph 21.9 mph N/A   Clear
8:58 PM 76.1 °F - 67.5 °F 74% 29.74 in 10.0 mi South 12.7 mph 19.6 mph N/A   Mostly Cloudy
9:58 PM 74.8 °F - 67.6 °F 78% 29.76 in 10.0 mi SSE 10.4 mph - N/A   Mostly Cloudy
10:58 PM 74.7 °F - 66.0 °F 74% 29.75 in 10.0 mi SSE 12.7 mph 19.6 mph N/A   Mostly Cloudy
11:55 PM 73.4 °F - 66.2 °F 78% 29.78 in 10.0 mi SSW 15.0 mph - N/A   Mostly Cloudy
11:58 PM 74.3 °F - 65.7 °F 74% 29.79 in 10.0 mi WSW 24.2 mph 29.9 mph N/A   Mostly Cloudy
11:59 PM 73.4 °F - 66.2 °F 78% 29.80 in 10.0 mi WSW 21.9 mph 29.9 mph N/A   Mostly Cloudy